GW1804 Weather Reports


time (UTC)temp
F
wind
direction
speed
knots
gust
knots
rain 1hr
in
rain 24hr
in
rain mn
in
humidity
%
barometer
mb
20260901001034 77 284 2.6 7.0 0.00 0.00 0.00 76 1012.9
20260901000532 77 300 3.5 7.0 0.00 0.00 0.00 76 1012.9
20260901000104 77 294 2.6 7.0 0.00 0.00 0.00 76 1012.9
20260831235532 77 298 3.5 9.6 0.00 0.00 0.00 75 1012.8
20260831235033 77 284 2.6 9.6 0.00 0.00 0.00 76 1012.9
20260831234556 77 267 3.5 9.6 0.00 0.00 0.00 76 1013.0
20260831234032 77 244 2.6 7.0 0.00 0.00 0.00 77 1013.0
20260831233534 78 262 3.5 7.0 0.00 0.00 0.00 75 1013.1
20260831233055 77 310 2.6 7.8 0.00 0.00 0.00 76 1013.0
20260831232532 78 290 4.3 7.8 0.00 0.00 0.00 75 1013.0
20260831232033 78 289 2.6 7.8 0.00 0.00 0.00 75 1012.9
20260831231553 78 279 2.6 7.8 0.00 0.00 0.00 75 1012.9
20260831231035 78 244 4.3 9.6 0.00 0.00 0.00 75 1012.9
20260831230533 78 296 2.6 9.6 0.00 0.00 0.00 75 1012.9
20260831230113 78 266 3.5 9.6 0.00 0.00 0.00 75 1012.9
20260831225532 78 296 3.5 8.7 0.00 0.00 0.00 75 1012.9
20260831225033 78 319 3.5 8.7 0.00 0.00 0.00 75 1013.0
20260831224559 78 306 3.5 7.8 0.00 0.00 0.00 75 1013.0
20260831224032 78 325 3.5 8.7 0.00 0.00 0.00 75 1013.0
20260831223534 78 314 4.3 8.7 0.00 0.00 0.00 75 1013.0
20260831223107 78 294 4.3 8.7 0.00 0.00 0.00 75 1013.1
20260831222532 78 292 3.5 8.7 0.00 0.00 0.00 75 1013.1
20260831222033 78 277 4.3 8.7 0.00 0.00 0.00 75 1013.2
20260831221603 78 234 3.5 8.7 0.00 0.00 0.00 74 1013.3
20260831221032 78 281 3.5 8.7 0.00 0.00 0.00 75 1013.4
20260831220534 78 264 4.3 8.7 0.00 0.00 0.00 74 1013.4
20260831220100 79 273 4.3 7.8 0.00 0.00 0.00 73 1013.5
20260831215532 79 250 4.3 7.8 0.00 0.00 0.00 74 1013.4
20260831215032 79 304 4.3 7.8 0.00 0.00 0.00 73 1013.4
20260831214607 79 277 4.3 7.8 0.00 0.00 0.00 73 1013.4
20260831214032 79 261 2.6 7.8 0.00 0.00 0.00 74 1013.4
20260831213533 79 279 3.5 8.7 0.00 0.00 0.00 74 1013.5
20260831213053 79 224 3.5 8.7 0.00 0.00 0.00 74 1013.5
20260831212533 78 290 4.3 9.6 0.00 0.00 0.00 74 1013.5
20260831212033 78 330 3.5 9.6 0.00 0.00 0.00 74 1013.6
20260831211601 78 268 3.5 9.6 0.00 0.00 0.00 74 1013.6
20260831211035 79 360 3.5 8.7 0.00 0.00 0.00 74 1013.6
20260831210531 78 281 4.3 8.7 0.00 0.00 0.00 74 1013.8
20260831210057 78 292 3.5 8.7 0.00 0.00 0.00 75 1013.8
20260831205536 78 284 3.5 7.8 0.00 0.00 0.00 74 1013.8
20260831205036 78 252 3.5 8.7 0.00 0.00 0.00 74 1013.8
20260831204558 78 227 3.5 8.7 0.00 0.00 0.00 74 1013.9
20260831204039 78 260 3.5 7.8 0.00 0.00 0.00 74 1013.9
20260831203536 78 272 2.6 7.8 0.00 0.00 0.00 75 1013.9
20260831203050 78 255 4.3 10.4 0.00 0.00 0.00 75 1014.0
20260831202533 78 268 4.3 10.4 0.00 0.00 0.00 75 1013.9
20260831202036 78 224 2.6 8.7 0.00 0.00 0.00 76 1014.0
20260831201553 78 279 4.3 8.7 0.00 0.00 0.00 75 1014.0
20260831201036 78 312 3.5 7.8 0.00 0.00 0.00 75 1014.0
20260831200535 78 265 3.5 7.8 0.00 0.00 0.00 74 1014.0
20260831200110 78 266 3.5 7.8 0.00 0.00 0.00 74 1014.0
20260831195535 78 188 3.5 7.8 0.00 0.00 0.00 75 1014.0
20260831195037 78 248 3.5 7.8 0.00 0.00 0.00 75 1013.9
20260831194640 78 278 3.5 7.0 0.00 0.00 0.00 76 1014.0
20260831194037 78 265 3.5 7.8 0.00 0.00 0.00 76 1014.1
20260831193536 78 301 3.5 7.8 0.00 0.00 0.00 76 1014.0
20260831193100 78 277 3.5 7.8 0.00 0.00 0.00 75 1014.1
20260831192535 78 261 1.7 7.8 0.00 0.00 0.00 76 1014.1
20260831192035 78 277 3.5 7.8 0.00 0.00 0.00 76 1014.2
20260831191558 78 307 3.5 7.0 0.00 0.00 0.00 75 1014.1
20260831191040 78 263 2.6 7.0 0.00 0.00 0.00 77 1014.2
20260831190535 77 217 2.6 7.0 0.00 0.00 0.00 77 1014.2
20260831190109 77 267 3.5 9.6 0.00 0.00 0.00 77 1014.1
20260831185535 77 210 3.5 9.6 0.00 0.00 0.00 77 1014.1
20260831185035 77 247 3.5 7.8 0.00 0.00 0.00 77 1014.2
20260831184559 77 306 2.6 7.0 0.00 0.00 0.00 77 1014.1
20260831184034 77 250 2.6 7.0 0.00 0.00 0.00 77 1014.1
20260831183536 76 239 2.6 7.0 0.00 0.00 0.00 77 1014.2
20260831183110 76 292 2.6 7.8 0.00 0.00 0.00 78 1014.2
20260831182536 76 259 3.5 7.8 0.00 0.00 0.00 78 1014.2
20260831182033 76 219 3.5 7.8 0.00 0.00 0.00 78 1014.2
20260831181609 76 265 2.6 7.0 0.00 0.00 0.00 79 1014.1
20260831181036 76 298 2.6 7.0 0.00 0.00 0.00 79 1014.1
20260831180533 75 286 2.6 8.7 0.00 0.00 0.00 79 1014.1
20260831180115 75 302 3.5 8.7 0.00 0.00 0.00 78 1014.1
20260831175537 75 277 3.5 7.0 0.00 0.00 0.00 79 1014.1
20260831175037 75 222 2.6 7.0 0.00 0.00 0.00 79 1014.1
20260831174556 75 217 2.6 7.0 0.00 0.00 0.00 80 1014.0
20260831174036 75 236 2.6 7.0 0.00 0.00 0.00 79 1014.0
20260831173541 75 298 2.6 7.0 0.00 0.00 0.00 81 1013.9
20260831173054 75 256 2.6 7.0 0.00 0.00 0.00 81 1013.9
20260831172535 74 234 1.7 6.1 0.00 0.00 0.00 81 1013.9
20260831172035 74 273 2.6 6.1 0.00 0.00 0.00 81 1013.9
20260831171602 74 277 1.7 6.1 0.00 0.00 0.00 81 1013.9
20260831171035 74 273 2.6 6.1 0.00 0.00 0.00 81 1013.8
20260831170535 74 265 2.6 6.1 0.00 0.00 0.00 82 1013.8
20260831170101 74 265 2.6 5.2 0.00 0.00 0.00 82 1013.8
20260831165535 73 219 1.7 6.1 0.00 0.00 0.00 82 1013.8
20260831165035 73 317 2.6 6.1 0.00 0.00 0.00 81 1013.8
20260831164558 73 296 1.7 6.1 0.00 0.00 0.00 82 1013.8
20260831164037 73 293 2.6 6.1 0.00 0.00 0.00 82 1013.7
20260831163536 73 296 2.6 5.2 0.00 0.00 0.00 82 1013.7
20260831163103 73 297 1.7 5.2 0.00 0.00 0.00 83 1013.7
20260831162535 73 266 1.7 5.2 0.00 0.00 0.00 83 1013.7
20260831162035 73 263 1.7 5.2 0.00 0.00 0.00 83 1013.6
20260831161605 72 251 0.0 3.5 0.00 0.00 0.00 83 1013.6
20260831161035 72 0 0.0 3.5 0.00 0.00 0.00 83 1013.6
20260831160535 72 228 0.9 4.3 0.00 0.00 0.00 83 1013.5
20260831160059 72 0 0.9 4.3 0.00 0.00 0.00 84 1013.6
20260831155532 72 306 0.9 2.6 0.00 0.00 0.00 84 1013.6
20260831155036 71 288 0.0 3.5 0.00 0.00 0.00 84 1013.6
20260831154628 71 0 0.0 3.5 0.00 0.00 0.00 84 1013.7
20260831154036 71 246 0.9 3.5 0.00 0.00 0.00 84 1013.7
20260831153535 71 249 0.9 3.5 0.00 0.00 0.00 85 1013.6
20260831153058 71 0 0.0 2.6 0.00 0.00 0.00 85 1013.6
20260831152538 71 216 1.7 2.6 0.00 0.00 0.00 85 1013.6
20260831152035 70 205 0.9 2.6 0.00 0.00 0.00 85 1013.5
20260831151615 70 0 0.0 1.7 0.00 0.00 0.00 85 1013.5
20260831151035 70 0 0.0 0.0 0.00 0.00 0.00 86 1013.5
20260831150538 70 0 0.0 1.7 0.00 0.00 0.00 86 1013.5
20260831150100 70 0 0.0 1.7 0.00 0.00 0.00 86 1013.5
20260831145537 69 0 0.0 1.7 0.00 0.00 0.00 86 1013.4
20260831145036 69 0 0.0 1.7 0.00 0.00 0.00 86 1013.4
20260831144600 69 0 0.0 0.9 0.00 0.00 0.00 86 1013.4
20260831144036 69 0 0.0 0.9 0.00 0.00 0.00 86 1013.4
20260831143533 69 0 0.0 0.9 0.00 0.00 0.00 86 1013.4
20260831143054 69 0 0.0 0.9 0.00 0.00 0.00 86 1013.4
20260831142536 69 0 0.0 0.9 0.00 0.00 0.00 86 1013.3
20260831142035 69 0 0.0 0.0 0.00 0.00 0.00 86 1013.2
20260831141602 69 0 0.0 0.9 0.00 0.00 0.00 86 1013.2
20260831141038 69 0 0.0 0.9 0.00 0.00 0.00 86 1013.1
20260831140534 69 0 0.0 0.9 0.00 0.00 0.00 86 1013.0
20260831140100 69 0 0.0 0.9 0.00 0.00 0.00 85 1012.9
20260831135536 69 0 0.0 0.0 0.00 0.00 0.00 85 1012.8
20260831135039 69 0 0.0 0.0 0.00 0.00 0.00 85 1012.7
20260831134557 69 0 0.0 0.0 0.00 0.00 0.00 85 1012.7
20260831134035 69 0 0.0 0.0 0.00 0.00 0.00 85 1012.6
20260831133535 69 0 0.0 0.0 0.00 0.00 0.00 85 1012.5
20260831133058 69 0 0.0 0.0 0.00 0.00 0.00 85 1012.5
20260831132535 69 0 0.0 1.7 0.00 0.00 0.00 85 1012.4
20260831132035 69 0 0.0 1.7 0.00 0.00 0.00 85 1012.3
20260831131555 69 201 0.0 1.7 0.00 0.00 0.00 84 1012.3
20260831131035 70 0 0.0 1.7 0.00 0.00 0.00 85 1012.3
20260831130536 70 0 0.0 0.0 0.00 0.00 0.00 85 1012.2
20260831125535 70 0 0.0 0.9 0.00 0.00 0.00 85 1012.3
20260831125032 70 0 0.0 0.0 0.00 0.00 0.00 85 1012.2
20260831124604 70 0 0.0 0.0 0.00 0.00 0.00 85 1012.2
20260831124032 70 0 0.0 0.0 0.00 0.00 0.00 85 1012.2
20260831123535 70 0 0.0 0.0 0.00 0.00 0.00 85 1012.2
20260831123057 70 0 0.0 0.0 0.00 0.00 0.00 85 1012.2
20260831122533 70 0 0.0 0.0 0.00 0.00 0.00 85 1012.3
20260831122034 70 0 0.0 0.0 0.00 0.00 0.00 85 1012.2
20260831121603 70 0 0.0 0.0 0.00 0.00 0.00 85 1012.2
20260831121035 70 0 0.0 0.0 0.00 0.00 0.00 85 1012.2
20260831120535 70 0 0.0 0.0 0.00 0.00 0.00 85 1012.1
20260831120057 70 0 0.0 0.0 0.00 0.00 0.00 86 1012.1
20260831115535 70 0 0.0 0.0 0.00 0.00 0.00 86 1012.2
20260831115036 70 0 0.0 0.9 0.00 0.00 0.00 86 1012.2
20260831114558 70 0 0.0 0.9 0.00 0.00 0.00 86 1012.2
20260831114036 70 0 0.0 0.0 0.00 0.00 0.00 86 1012.2
20260831113535 70 0 0.0 0.0 0.00 0.00 0.00 86 1012.2
20260831113105 70 0 0.0 0.9 0.00 0.00 0.00 86 1012.2
20260831112536 70 0 0.0 0.9 0.00 0.00 0.00 87 1012.2
20260831112043 70 0 0.0 0.9 0.00 0.00 0.00 87 1012.3
20260831111600 70 0 0.0 0.9 0.00 0.00 0.00 87 1012.2
20260831111035 70 0 0.0 0.9 0.00 0.00 0.00 87 1012.3
20260831110535 70 0 0.0 0.9 0.00 0.00 0.00 87 1012.4
20260831110057 70 0 0.0 0.9 0.00 0.00 0.00 87 1012.3
20260831105535 70 0 0.0 0.9 0.00 0.00 0.00 87 1012.2
20260831105032 70 0 0.0 0.9 0.00 0.00 0.00 87 1012.3
20260831104607 70 0 0.0 0.9 0.00 0.00 0.00 87 1012.3
20260831104032 70 0 0.0 2.6 0.00 0.00 0.00 88 1012.3
20260831103535 70 0 0.0 2.6 0.00 0.00 0.00 88 1012.4
20260831103053 70 0 0.9 2.6 0.00 0.00 0.00 87 1012.4
20260831102535 70 0 0.0 1.7 0.00 0.00 0.00 88 1012.4
20260831102034 70 0 0.0 3.5 0.00 0.00 0.00 88 1012.4
20260831101602 70 0 0.0 4.3 0.00 0.00 0.00 88 1012.3
20260831101036 70 242 1.7 4.3 0.00 0.00 0.00 88 1012.4
20260831100534 70 0 0.0 5.2 0.00 0.00 0.00 88 1012.3
20260831100108 70 0 0.9 5.2 0.00 0.00 0.00 88 1012.4
20260831095535 70 225 0.9 4.3 0.00 0.00 0.00 89 1012.4
20260831095035 70 192 0.9 2.6 0.00 0.00 0.00 89 1012.4
20260831094553 70 0 0.0 2.6 0.00 0.00 0.00 89 1012.4
20260831094035 70 196 0.0 2.6 0.00 0.00 0.00 89 1012.4
20260831093536 70 215 0.0 1.7 0.00 0.00 0.00 89 1012.4
20260831093053 70 0 0.0 1.7 0.00 0.00 0.00 89 1012.4
20260831092535 70 0 0.0 1.7 0.00 0.00 0.00 90 1012.4
20260831092040 70 185 0.0 1.7 0.00 0.00 0.00 90 1012.4
20260831091559 70 180 0.0 0.9 0.00 0.00 0.00 90 1012.4
20260831091035 70 180 0.0 0.9 0.00 0.00 0.00 90 1012.5
20260831090535 70 0 0.0 1.7 0.00 0.00 0.00 90 1012.4
20260831090056 70 0 0.0 1.7 0.00 0.00 0.00 90 1012.4
20260831085535 70 0 0.0 0.9 0.00 0.00 0.00 90 1012.4
20260831085036 70 0 0.0 0.9 0.00 0.00 0.00 89 1012.4
20260831084612 70 0 0.0 0.9 0.00 0.00 0.00 89 1012.5
20260831084033 70 0 0.0 0.9 0.00 0.00 0.00 89 1012.5
20260831083539 70 0 0.0 1.7 0.00 0.00 0.00 89 1012.5
20260831083104 70 194 0.0 1.7 0.00 0.00 0.00 89 1012.5
20260831082539 70 190 0.0 1.7 0.00 0.00 0.00 89 1012.5
20260831082035 70 0 0.0 0.9 0.00 0.00 0.00 90 1012.6
20260831081556 70 0 0.0 0.9 0.00 0.00 0.00 90 1012.5
20260831081035 70 0 0.0 1.7 0.00 0.00 0.00 90 1012.7
20260831080532 70 0 0.0 1.7 0.00 0.00 0.00 90 1012.5
20260831080105 70 265 0.0 1.7 0.00 0.00 0.00 90 1012.7
20260831075534 70 0 0.0 0.9 0.00 0.00 0.00 90 1012.7
20260831075035 70 0 0.0 0.9 0.00 0.00 0.00 90 1012.7
20260831074557 70 0 0.0 1.7 0.00 0.00 0.00 90 1012.7
20260831074035 70 0 0.0 1.7 0.00 0.00 0.00 90 1012.7
20260831073532 70 0 0.0 1.7 0.00 0.00 0.00 90 1012.8
20260831073104 70 0 0.0 1.7 0.00 0.00 0.00 89 1012.8
20260831072537 70 0 0.0 0.9 0.00 0.00 0.00 89 1012.7
20260831072038 70 0 0.0 0.0 0.00 0.00 0.00 89 1012.8
20260831071557 70 0 0.0 0.0 0.00 0.00 0.00 89 1012.8
20260831071035 70 0 0.0 0.0 0.00 0.00 0.00 89 1012.8
20260831070535 70 0 0.0 0.0 0.00 0.00 0.00 89 1012.7
20260831070109 70 0 0.0 0.0 0.00 0.00 0.00 89 1012.8
20260831065531 70 0 0.0 0.0 0.00 0.00 0.00 89 1012.7
20260831065037 70 0 0.0 0.0 0.00 0.00 0.00 89 1012.7
20260831064559 70 0 0.0 0.0 0.00 0.00 0.00 89 1012.7
20260831064036 70 0 0.0 0.9 0.00 0.00 0.00 89 1012.6
20260831063535 70 0 0.0 1.7 0.00 0.00 0.00 89 1012.6
20260831063056 70 0 0.0 1.7 0.00 0.00 0.00 88 1012.6
20260831062534 70 0 0.0 1.7 0.00 0.00 0.00 88 1012.6
20260831062034 70 0 0.0 0.9 0.00 0.00 0.00 88 1012.5
20260831061554 70 0 0.0 0.9 0.00 0.00 0.00 88 1012.5
20260831061034 70 0 0.0 0.9 0.00 0.00 0.00 88 1012.5
20260831060532 70 0 0.0 0.0 0.00 0.00 0.00 88 1012.5
20260831060106 70 0 0.0 0.0 0.00 0.00 0.00 88 1012.4
20260831055535 71 0 0.0 0.0 0.00 0.00 0.00 88 1012.5
20260831055034 71 0 0.0 0.0 0.00 0.00 0.00 88 1012.6
20260831054604 71 0 0.0 0.0 0.00 0.00 0.00 88 1012.5
20260831054035 71 0 0.0 0.0 0.00 0.00 0.00 88 1012.5
20260831053535 71 0 0.0 0.9 0.00 0.00 0.00 88 1012.6
20260831053057 71 0 0.0 0.9 0.00 0.00 0.00 88 1012.6
20260831052538 71 0 0.0 0.9 0.00 0.00 0.00 88 1012.7
20260831052031 71 0 0.0 0.9 0.00 0.00 0.00 88 1012.6
20260831051555 71 0 0.0 0.9 0.00 0.00 0.00 88 1012.6
20260831051033 71 0 0.0 0.9 0.00 0.00 0.00 88 1012.6
20260831050535 71 0 0.0 0.0 0.00 0.00 0.00 88 1012.6
20260831050106 71 0 0.0 0.0 0.00 0.00 0.00 88 1012.6
20260831045535 71 0 0.0 0.0 0.00 0.00 0.00 88 1012.6
20260831045037 71 0 0.0 0.0 0.00 0.00 0.00 87 1012.5
20260831044600 71 0 0.0 0.0 0.00 0.00 0.00 87 1012.5
20260831044034 71 0 0.0 0.9 0.00 0.00 0.00 87 1012.5
20260831043532 71 0 0.0 0.9 0.00 0.00 0.00 87 1012.4
20260831043057 71 265 0.0 1.7 0.00 0.00 0.00 87 1012.4
20260831042536 71 0 0.0 1.7 0.00 0.00 0.00 87 1012.3
20260831042036 71 0 0.0 2.6 0.00 0.00 0.00 87 1012.4
20260831041602 71 265 0.0 2.6 0.00 0.00 0.00 87 1012.3
20260831041038 71 265 0.9 2.6 0.00 0.00 0.00 87 1012.2
20260831040534 71 281 0.9 2.6 0.00 0.00 0.00 87 1012.2
20260831040105 71 291 0.9 2.6 0.00 0.00 0.00 87 1012.1
20260831035532 71 278 0.9 2.6 0.00 0.00 0.00 86 1012.1
20260831035035 72 272 0.9 2.6 0.00 0.00 0.00 86 1012.1
20260831034607 72 300 0.9 2.6 0.00 0.00 0.00 86 1012.0
20260831034035 72 258 0.9 2.6 0.00 0.00 0.00 86 1012.0
20260831033533 72 271 0.9 3.5 0.00 0.00 0.00 86 1012.0
20260831033059 72 284 0.9 3.5 0.00 0.00 0.00 86 1011.9
20260831032535 72 276 1.7 3.5 0.00 0.00 0.00 86 1011.9
20260831032034 72 237 0.9 4.3 0.00 0.00 0.00 86 1011.8
20260831031601 72 312 0.0 4.3 0.00 0.00 0.00 85 1011.7
20260831031031 72 290 1.7 4.3 0.00 0.00 0.00 85 1011.6
20260831030531 73 298 0.9 2.6 0.00 0.00 0.00 85 1011.5
20260831030107 73 288 0.9 2.6 0.00 0.00 0.00 85 1011.6
20260831025535 73 292 0.9 1.7 0.00 0.00 0.00 85 1011.6
20260831025031 73 0 0.0 2.6 0.00 0.00 0.00 85 1011.6
20260831024553 73 0 0.0 5.2 0.00 0.00 0.00 85 1011.6
20260831024035 73 207 0.9 5.2 0.00 0.00 0.00 85 1011.6
20260831023534 73 209 0.9 5.2 0.00 0.00 0.00 84 1011.5
20260831023058 73 267 0.9 3.5 0.00 0.00 0.00 84 1011.4
20260831022534 73 271 0.9 3.5 0.00 0.00 0.00 84 1011.4
20260831022034 73 227 0.0 3.5 0.00 0.00 0.00 84 1011.4
20260831021605 73 248 0.9 3.5 0.00 0.00 0.00 84 1011.3
20260831021032 74 0 0.0 4.3 0.00 0.00 0.00 84 1011.2
20260831020532 74 286 1.7 4.3 0.00 0.00 0.00 83 1011.3
20260831020108 74 211 1.7 4.3 0.00 0.00 0.00 83 1011.3
20260831015532 74 300 1.7 4.3 0.00 0.00 0.00 83 1011.2
20260831015034 75 294 1.7 4.3 0.00 0.00 0.00 82 1011.1
20260831014603 75 245 1.7 3.5 0.00 0.00 0.00 82 1011.1
20260831014033 75 273 0.9 4.3 0.00 0.00 0.00 82 1011.2
20260831013532 75 278 1.7 4.3 0.00 0.00 0.00 81 1011.1
20260831013102 76 223 1.7 4.3 0.00 0.00 0.00 81 1011.1
20260831012531 76 225 2.6 7.0 0.00 0.00 0.00 80 1011.1
20260831012032 76 317 0.9 7.0 0.00 0.00 0.00 80 1011.0
20260831011612 77 248 1.7 7.0 0.00 0.00 0.00 79 1011.2
20260831011032 77 307 1.7 6.1 0.00 0.00 0.00 79 1011.2
20260831010532 77 274 1.7 5.2 0.00 0.00 0.00 79 1011.2
20260831010057 78 236 1.7 5.2 0.00 0.00 0.00 77 1011.2
20260831005533 78 235 2.6 6.1 0.00 0.00 0.00 77 1011.3
20260831005033 78 234 2.6 6.1 0.00 0.00 0.00 77 1011.2
20260831004556 78 213 1.7 6.1 0.00 0.00 0.00 77 1011.3
20260831004033 79 256 3.5 6.1 0.00 0.00 0.00 76 1011.1
20260831003532 79 227 1.7 5.2 0.00 0.00 0.00 76 1011.2
20260831003054 79 273 2.6 6.1 0.00 0.00 0.00 75 1011.2
20260831002535 79 255 2.6 7.8 0.00 0.00 0.00 75 1011.2
20260831002031 79 209 2.6 7.8 0.00 0.00 0.00 74 1011.3
20260831001603 79 269 3.5 7.8 0.00 0.00 0.00 74 1011.3